IRIDIUM 33 DEB, 34648

Orbit data source: Space-Track

IRIDIUM 33 DEB, 34648 is space debris in LEO originally from a launch on Sun, 14 Sep 1997 UTC launched from the Tyuratam Missile And Space Complex (TTMTR). The debris from Iridium 33, an American commercial communications satellite, has been tracked extensively since its accidental collision with the defunct Russian satellite Cosmos 2251 in 2009. This event, occurring at high speed in low Earth orbit (LEO), generated thousands of pieces of space debris, significantly increasing the risk of further collisions. The Iridium 33 debris cloud has impacted space traffic management and orbital debris mitigation strategies, making it a subject of ongoing study in space situational awareness.

Loading next visibility...
Identifier
34648, 1997-051JZ
Orbit
LEO
Country
Flag of USUS
Related business
Manufacturer
Unknown
Mission
Spacecraft
Bus & Motor
Unknown
Mass
Unknown
Launch date (UTC)
1997-09-14 (28 years ago)
Launch vehicle
Unknown
Launch site
Tyuratam Missile And Space Complex (TTMTR)
Object type
Payload
Rocket body
Debris
Shape & HBR
Unknown shape, 0.1 m
Radar Cross Section
Small (<0.1 m²)

Expand to show TLE details & history
Last TLE update: 10 hours ago

TLE from 10 hours ago
0 IRIDIUM 33 DEB
1 34648U 97051JZ  26038.01892875  .00010900  00000-0  50405-2 0  9992
2 34648  86.3901 259.1983 0176058 119.3684 242.5212 14.12926229857556
Epoch: 2026-02-07T00:27Z
TLE epoch observation values (Epoch: 2026-02-07T00:27:15.444Z)
Latitude
-0.00002°
Longitude
115.23548°
Altitude
912.867 km
Speed
7.364 km/s
True Right ascension
17h 16m 47s
True Declination
0° 00' 00"
Sunlit
Object was in daylight at epoch
Visualization orbit readout
Latitude
Unknown
Longitude
Unknown
Altitude
Unknown
Speed
Unknown
Apparent Right ascension
Unknown
Apparent Declination
Unknown
Sunlit
N/A
Visualization observer readout
Local Sidereal Time
13:02:25
Azimuth
Unknown
Elevation
Unknown
Doppler factor
Unknown
Orbital elements
Apogee altitude
973.562 km
Perigee altitude
719.176 km
Semi-major axis
7,224.506 km
Eccentricity
0.01761
Inclination
86.3901°
RAAN
259.1983°
Arg. of periapsis
119.3684°
True anomaly
240.74961°
Mean anomaly
242.5212°
Eccentric anomaly
241.63358°
Mean motion
3.53452 °/min
Orbital period
101.85 mins
BSTAR
0.0050405
Loading maneuver chart data...
Computing Atmospheric mass density...
Loading historical data...
Loading historical data...
Loading historical data...
Loading historical data...
Loading historical data...
Loading historical data...
Loading historical data...

Documentation

Showing up to 5 results
|